sat.trackr.live / text

‹ back to catalog

STARLINK-5704

NORAD 55486 · 2023-015AP

PAYLOAD ACTIVE UNKNOWN

§ Identity

Operator
Country
US
Launch date
2023-02-02
Launch site
AFETR
Launch vehicle
Mass (kg)
RCS (m²)

Purposes: comms

External: N2YO · Heavens-Above · Gunter

§ Orbital elements

Epoch: 2026-05-25T01:32:31.948224Z

Period
94.27 min
Inclination
43.0011°
Eccentricity
0.0001145
Mean motion
15.27574427 rev/d
Perigee alt
482.3 km
Apogee alt
483.9 km
Semi-major
6,861.2 km
B*
4.4801e-6
RAAN
268.5457°
Arg perigee
308.5897°
Mean anomaly
51.4852°
Rev number
18,227

§ Raw data

STARLINK-57041 55486U 23015AP  26145.06425866 -.00000139  00000+0  44801-5 0  99992 55486  43.0011 268.5457 0001145 308.5897  51.4852 15.27574427182276

JSON: /api/v1/satellites/55486 · /tle

For live sub-satellite position, see the globe view (requires WebGL).

§ Visibility from observer

Set your observer location to see the next 7 days of passes ≥ 10°. The values pass through the URL so the page stays shareable.

No JS? Fill the form by hand. The geolocation button needs JavaScript.